Home   Weather   Portimão   Past weeks

Flag for Portugal Past Weather in Portimão, Portugal — Yesterday and Last 2 Weeks

Now
72 °F

Clear.


Feels Like: 76 °F
Forecast: 64 / 82 °F
Wind: 9 mph from Northeast

Location: Faro / Aeroporto

Current Time: Sep 28, 2016 at 4:32:07 AM

Latest Report: Sep 28, 2016 at 4:00 AM


Visibility: 10 mi

Pressure: 30.12 "Hg

Humidity: 61%

Dew Point: 57 °F

Location of PortimãoLocation

Past Weather in Portimão — Graph

°F

Portimão Temperature Yesterday

Maximum temperature yesterday: 84 °F (at 10:30 AM)
Minimum temperature yesterday: 68 °F (at 11:00 PM)
Average temperature yesterday: 77 °F

High & Low Weather Summary for the Past Weeks

 TemperatureHumidityPressure
High84 °F (Sep 17, 11:00 AM)100% (Sep 13, 4:30 AM)30.21 "Hg (Sep 13, 4:30 AM)
Low59 °F (Sep 15, 7:00 AM)27% (Sep 27, 10:30 AM)29.92 "Hg (Sep 13, 4:00 AM)
Average70 °F66%30.06 "Hg
* Reported Sep 13 3:00 AM — Sep 28 3:30 AM, Portimão, Weather by CustomWeather, © 2016

Note: Actual official high and low records may vary slightly from our data, if they occured in-between our weather recording intervals... More about our weather records

Advertising

Portimão Weather History for the Previous 24 Hours

Scroll right to see more
 ConditionsComfort  
Time TempWeatherWind HumidityBarometerVisibility
3:30 AM
Wed, Sep 28
70 °FClear.8 mph60%30.12 "Hg10 mi
3:00 AM68 °FClear.6 mph64%30.12 "Hg10 mi
2:30 AM70 °FClear.6 mph60%30.12 "Hg10 mi
2:00 AM72 °FClear.7 mph57%30.12 "Hg10 mi
1:30 AM70 °FClear.6 mph60%30.12 "Hg10 mi
1:00 AM70 °FClear.6 mph60%30.12 "Hg10 mi
12:30 AM70 °FClear.7 mph60%30.12 "Hg10 mi
12:00 AM70 °FClear.6 mph73%30.12 "Hg10 mi
11:30 PM
Tue, Sep 27
70 °FClear.No wind78%30.12 "Hg10 mi
11:00 PM68 °FClear.2 mph83%30.12 "Hg10 mi
10:30 PM70 °FClear.5 mph73%30.12 "Hg10 mi
10:00 PM72 °FClear.6 mph69%30.12 "Hg10 mi
9:30 PM72 °FClear.6 mph69%30.12 "Hg10 mi
9:00 PM72 °FClear.7 mph69%30.12 "Hg10 mi
8:30 PM73 °FClear.7 mph61%30.12 "Hg10 mi
8:00 PM72 °FClear.8 mph69%30.09 "Hg10 mi
7:30 PM73 °FClear.7 mph65%30.09 "Hg10 mi
7:00 PM75 °FSunny.10 mph57%30.09 "Hg10 mi
6:30 PM75 °FSunny.12 mph54%30.09 "Hg10 mi
6:00 PM81 °FSunny.7 mph45%30.09 "Hg10 mi
5:30 PM81 °FPassing clouds.6 mph42%30.09 "HgN/A
5:00 PM81 °FPassing clouds.6 mph39%30.09 "HgN/A
4:30 PM81 °FPassing clouds.7 mph39%30.09 "HgN/A
4:00 PM81 °FSunny.12 mph42%30.09 "Hg10 mi
3:30 PM82 °FSunny.13 mph40%30.09 "Hg10 mi
3:00 PM82 °FSunny.14 mph28%30.12 "Hg10 mi
2:30 PM82 °FSunny.9 mph30%30.12 "Hg10 mi
2:00 PM82 °FSunny.10 mph32%30.12 "Hg10 mi
1:30 PM82 °FSunny.13 mph32%30.12 "Hg10 mi
1:00 PM82 °FSunny.14 mph32%30.12 "Hg10 mi
12:30 PM84 °FSunny.15 mph27%30.12 "Hg10 mi
12:00 PM82 °FSunny.13 mph32%30.15 "Hg10 mi
11:30 AM84 °FSunny.12 mph27%30.15 "Hg10 mi
11:00 AM82 °FSunny.7 mph35%30.15 "Hg10 mi
10:30 AM84 °FPassing clouds.7 mph27%30.12 "HgN/A
10:00 AM81 °FPassing clouds.9 mph30%30.12 "HgN/A
9:30 AM79 °FSunny.9 mph32%30.12 "Hg10 mi
9:00 AM77 °FSunny.9 mph36%30.12 "Hg10 mi
8:30 AM75 °FSunny.12 mph39%30.09 "Hg10 mi
8:00 AM73 °FPassing clouds.3 mph41%30.09 "HgN/A
7:30 AM73 °FPassing clouds.8 mph41%30.09 "HgN/A
7:00 AM75 °FClear.14 mph39%30.09 "Hg10 mi
6:30 AM75 °FClear.15 mph36%30.07 "Hg10 mi
6:00 AM77 °FClear.16 mph34%30.07 "Hg10 mi
5:30 AM77 °FClear.14 mph32%30.07 "Hg10 mi
5:00 AM77 °FClear.14 mph32%30.07 "Hg10 mi
4:30 AM77 °FClear.14 mph30%30.07 "Hg10 mi
4:00 AM77 °FClear.14 mph28%30.07 "Hg10 mi
Weather by CustomWeather, © 2016

See weather overviewHow to use our weather pages